Regional Weather Roundup
Issued by NWS

Home | Current Version | Previous Version | Text Only | Print | Product List | Glossary On
Versions: 1 2 3 4 5 6 7 8 9 10 11 12 13 14 15 16 17 18 19 20 21 22 23 24 25 26 27 28 29 30 31 32 33 34 35 36 37 38 39 40 41 42 43 44 45 46 47 48 49 50
000
ASUS45 KBOI 261610
RWRID
WEATHER ROUNDUP FOR IDAHO
NATIONAL WEATHER SERVICE BOISE ID
1000 AM MDT SUN APR 26 2015

NOTE: "FAIR" INDICATES FEW OR NO CLOUDS BELOW 12000 FEET
WITH NO SIGNIFICANT WEATHER AND/OR OBSTRUCTIONS TO VISIBILITY

IDZ012-014-261700-
SOUTHWEST IDAHO


CITY           SKY/WX    TMP DP  RH WIND       PRES   REMARKS
BOISE          SUNNY     45  28  51 NW17      30.08R
CALDWELL       SUNNY     48  27  43 NW20      30.13R
MOUNTAIN HOME  SUNNY     47  26  43 NW28G35   30.05R
$$

IDZ016-017-261700-
SOUTHCENTRAL IDAHO


CITY           SKY/WX    TMP DP  RH WIND       PRES   REMARKS
BURLEY         SUNNY     42  26  53 W17G31    29.99R
JEROME         SUNNY     42  25  50 W28G38    29.99R
TWIN FALLS     SUNNY     46  24  42 W29G35    30.01R
$$

IDZ019>023-261700-
SOUTHEAST IDAHO


CITY           SKY/WX    TMP DP  RH WIND       PRES   REMARKS
IDAHO FALLS    CLOUDY    35  33  92 SW20      29.93R WCI  24
POCATELLO      CLOUDY    39  29  67 SW23      29.98R WCI  28
REXBURG        LGT RAIN  35  33  92 SW12      29.92R WCI  27
$$

IDZ006-010-011-018-031-032-261700-
CENTRAL IDAHO MOUNTAINS


CITY           SKY/WX    TMP DP  RH WIND       PRES   REMARKS
MCCALL         SUNNY     38  22  52 N18G26    30.05R WCI  28
HAILEY         MOSUNNY   41  34  75 SE7       29.94R
STANLEY          N/A     35  19  52 NW7       30.00R WCI  29
SALMON         CLOUDY    41  30  65 CALM      30.01R
CHALLIS        CLOUDY    41  28  60 N10G16    29.98R
$$

IDZ002-004-006-007-026-261700-
NORTHERN IDAHO


CITY           SKY/WX    TMP DP  RH WIND       PRES   REMARKS
LEWISTON       SUNNY     48  35  60 CALM      30.18R
LOWELL           N/A     47  40  76 NW3       30.18R
COEUR D`ALENE  PTSUNNY   43  37  81 CALM      30.16R
MULLAN PASS    CLOUDY    29  29 100 N5        30.06R FOG     WCI  24
$$


USA.gov is the U.S. government's official web portal to all federal, state and local government web resources and services.